Regional Weather Roundup
Issued by NWS

Home | Current Version | Previous Version | Text Only | Print | Product List | Glossary Off
Versions: 1 2 3 4 5 6 7 8 9 10 11 12 13 14 15 16 17 18 19 20 21 22 23 24 25 26 27 28 29 30 31 32 33 34 35 36 37 38 39 40 41 42 43 44 45 46 47 48 49 50

000
ASUS45 KTFX 281504
RWRMT
MONTANA HOURLY WEATHER ROUNDUP
NATIONAL WEATHER SERVICE GREAT FALLS MT
904 AM MDT MON JUL 28 2014

NOTE: "FAIR" INDICATES FEW OR NO CLOUDS BELOW 12000 FEET WITH NO
SIGNIFICANT WEATHER AND/OR OBSTRUCTIONS TO VISIBILITY.

* THESE STATIONS ARE NOT UNDER NWS QUALITY CONTROL. THEY DO NOT
   REPORT WEATHER SUCH AS PRECIPITATION OR FOG.

MTZ001>007-043-281600-
WEST OF THE DIVIDE
CITY           SKY/WX    TMP DP  RH WIND       PRES   REMARKS
KALISPELL      PTCLDY    64  48  56 N7        30.22R
MISSOULA       PTCLDY    64  43  47 CALM      30.24R
BUTTE          CLOUDY    61  39  44 CALM      30.35S
MULLAN PASS    CLOUDY    66  39  37 N5        30.37R
* ESSEX        N/A       54  41  62 SE5G11     N/A
* LINCOLN      N/A       49  43  80 N/A        N/A
* LOOKOUT PASS N/A       66  49  54 VRB3       N/A
* POLSON       N/A       62  53  73 NW1        N/A
* RONAN APT    PTSUNNY   61  50  67 N/A        N/A
* SEELEY LAKE  N/A       52  42  69 E1         N/A
* THOMP F APT  PTSUNNY   70  35  28 NE2G8      N/A
* YAAK HILL    N/A       60  48  65 W1         N/A
$$

MTZ008-052>055-281600-
SOUTHWEST MONTANA
CITY           SKY/WX    TMP DP  RH WIND       PRES   REMARKS
BOZEMAN        PTSUNNY   66  41  40 CALM      30.29S
DILLON         CLOUDY    63  43  48 SW3       30.32R
W YELLOWSTONE  PTSUNNY   54  39  57 S5        30.44R
* THREE FORKS  CLOUDY    63  57  81 N/A        N/A
* BOULDER HILL N/A       64  36  35 S5         N/A
* RAYNOLDS PAS N/A       58  15  18 NE4        N/A
* WHITEHALL    N/A       60  45  58 SW3        N/A
* WISE RIVER   N/A       50  40  69 N2         N/A
$$

MTZ009>010-012-014-046-048-049-054-281600-
EAST SLOPES AND CENTRAL MONTANA
CITY           SKY/WX    TMP DP  RH WIND       PRES   REMARKS
CUT BANK       PTSUNNY   66  45  47 E5        30.28R
GREAT FALLS    PTCLDY    68  43  40 VRB3      30.26R
HELENA         CLOUDY    66  41  40 NW3       30.29S
* CONRAD       PTCLDY    63  54  73 N/A        N/A
* DEARBORN     N/A       64  43  47 N/A        N/A
* EAST GLACIER N/A       60  42  52 VRB9       N/A
* ROGERS PASS  N/A       65  43  45 N/A        N/A
* SAINT MARY   N/A       49  46  89 SW1        N/A
* SWEET GRASS  N/A       69  44  41 S20        N/A
$$

MTZ011-013-016-021-035-040-045-047-050-051-281600-
NORTH CENTRAL MONTANA
CITY           SKY/WX    TMP DP  RH WIND       PRES   REMARKS
HAVRE          PTCLDY    70  48  46 NE7       30.24S
LEWISTOWN      SUNNY     73  45  37 E9        30.30S
* CHESTER      N/A       71  44  38 SE6G13     N/A
* DENTON       N/A       74  46  37 SE12       N/A
* JUDITH GAP   N/A       67  47  49 S8         N/A
* LOMA         N/A       73  44  35 E16        N/A
$$

MTZ017>020-022>027-061-062-281600-
NORTHEAST MONTANA
CITY           SKY/WX    TMP DP  RH WIND       PRES   REMARKS
GLASGOW        SUNNY     68  54  61 E8        30.28S
GLENDIVE       SUNNY     66  54  65 S3        30.32F
JORDAN         SUNNY     72  52  49 E3        30.28S
SIDNEY         SUNNY     64  55  73 S5        30.33S
WOLF POINT     SUNNY     66  54  65 E5        30.30S
* BEAVER HILL  N/A       67  56  68 SE4G9      N/A
* CIRCLE       N/A       69  57  66 N/A        N/A
* LINDSAY DVD  N/A       63  55  75 E5         N/A
* NAVAJO       N/A       63  56  78 S6         N/A
$$

MTZ028>042-056>058-281600-
SOUTHCENTRAL AND SOUTHEAST MONTANA
CITY           SKY/WX    TMP DP  RH WIND       PRES   REMARKS
BAKER          SUNNY     66  54  65 E8        30.34S
BILLINGS       SUNNY     66  46  49 CALM      30.29S
LIVINGSTON     PTCLDY    64  39  40 CALM      30.33F
MILES CITY     SUNNY     70  54  57 E5        30.29F
* LAUREL APT   SUNNY     64  45  50 N/A        N/A
* ROUNDUP APT  SUNNY     66  43  43 N/A        N/A
* ALZADA       N/A       64  53  68 E4         N/A
* HYSHAM       N/A       73  49  43 SE8        N/A
* LAME DEER    N/A       65  49  56 SE9G14     N/A
* REED POINT   N/A       68  44  42 N/A        N/A
* ROSCOE HILL  N/A       65  40  40 NW2        N/A
$$

REGIONAL REPORTS...DAKOTAS
CITY           SKY/WX    TMP DP  RH WIND       PRES   REMARKS
WILLISTON      SUNNY     66  54  65 VRB3      30.32F
DICKINSON      SUNNY     64  54  70 S8        30.33S
CROSBY         N/A       63  61  93 S3        30.33F
TIOGA          SUNNY     64  63  97 W3        30.37S
WATFORD CITY   SUNNY     66  55  68 CALM      30.31S
BISMARCK       SUNNY     64  52  65 CALM      30.34F
GRAND FORKS    PTSUNNY   64  55  73 NW8       30.28R
FARGO          CLOUDY    64  55  73 NW9       30.28S
BUFFALO SD     SUNNY     66  55  68 SE8       30.28F
RAPID CITY     SUNNY     66  57  73 SE10      30.35S
$$

REGIONAL REPORTS...WYOMING/IDAHO/WASHINGTON
CITY           SKY/WX    TMP DP  RH WIND       PRES   REMARKS
GILLETTE       SUNNY     70  50  49 SE16G23   30.35R
SHERIDAN       SUNNY     68  46  45 NE3       30.31S
YELLOWSTONE LA PTSUNNY   57  39  51 CALM      30.53S
SALMON         CLOUDY    57  41  55 W3        30.25R
MULLAN PASS    CLOUDY    66  39  37 N5        30.37S
SAND POINT     PTSUNNY   68  50  53 N8        30.15F
SPOKANE        PTSUNNY   72  46  40 NE10      30.12R

$$



USA.gov is the U.S. government's official web portal to all federal, state and local government web resources and services.